Temperature
23 20 20 21 21 22 23 23 23 24 25 24 23 23 23 24 24 23 23 22 22 22 22 22 22 22 21 20 20 20 19 19 19 18 18 18 18 17 17 17 17 17 17 17
21 20 21 22 23 23 23 23 23 23 24 24 23 23 23 23 23 23 23 22 22 22 22 21 21 21 21 20 20 20 19 19 18 18 18 18 17 17 17 17 17 17 17 16
20 21 23 24 23 24 23 23 23 23 24 24 23 22 22 23 23 23 23 22 22 21 21 21 21 21 20 20 20 19 19 19 18 18 18 17 17 17 17 17 17 16 16 16
21 22 24 24 23 24 23 24 24 24 23 21 22 20 21 21 21 21 21 21 21 21 21 20 20 20 20 19 19 19 19 18 18 18 18 17 17 17 17 17 16 16 16 16
21 23 23 23 24 25 23 25 24 24 22 21 21 20 20 20 20 20 20 21 20 20 20 20 20 20 19 19 19 19 18 18 18 18 17 17 17 17 17 16 16 16 16 16
22 23 24 24 25 25 25 24 23 20 19 20 20 20 20 19 20 20 20 21 20 20 20 20 20 20 19 19 19 18 18 18 18 17 17 17 17 17 17 16 16 16 16 16
22 23 24 25 24 24 23 21 19 20 18 19 20 20 19 20 21 21 20 20 20 20 20 20 19 19 19 19 19 18 18 18 17 17 17 17 17 17 17 17 16 16 16 16
20 21 23 24 23 22 22 20 19 19 19 19 20 20 20 21 21 21 21 21 20 20 20 20 19 19 19 19 19 18 18 18 17 17 17 17 16 16 16 16 16 16 16 16
20 20 23 24 25 23 22 20 20 19 19 19 19 20 20 20 20 20 20 20 19 19 19 19 19 19 19 18 18 18 18 17 17 17 17 16 16 16 16 16 16 16 16 16
20 20 22 24 24 23 22 21 18 18 19 19 19 20 19 20 19 19 18 19 19 19 19 19 19 19 18 18 18 18 17 17 17 17 17 16 16 16 16 16 16 16 16 16
20 20 21 22 22 22 22 21 19 17 17 18 19 19 20 19 19 18 18 19 19 19 19 19 19 19 18 18 18 18 17 17 17 16 16 16 16 16 16 16 16 16 15 15
19 18 18 20 22 22 22 20 18 18 18 17 18 18 20 19 18 18 18 18 18 19 19 19 19 18 18 18 17 17 17 17 17 16 16 16 16 16 16 15 15 15 15 15
19 17 18 19 19 20 21 20 19 18 17 17 17 19 19 18 18 18 18 18 18 18 18 18 18 18 18 17 17 17 17 17 16 16 16 16 16 16 15 15 15 15 15 15
19 16 17 18 18 19 20 20 20 18 17 17 18 19 18 18 17 17 18 18 18 18 18 18 18 17 17 17 17 17 16 16 16 16 16 16 15 15 15 15 15 15 15 15
17 17 18 18 20 20 20 20 20 19 18 18 18 18 18 18 17 17 17 17 17 17 17 17 17 17 17 17 17 16 16 16 16 16 15 15 15 15 15 15 15 15 15 14
16 16 18 18 20 20 20 20 20 20 19 19 19 18 18 17 17 17 17 17 16 16 17 17 17 17 17 17 17 16 16 16 15 15 15 15 15 15 15 15 15 14 14 14
15 15 16 17 18 19 18 19 19 19 19 19 18 18 17 16 16 16 16 16 16 16 17 16 16 17 17 16 16 16 16 15 15 15 15 15 15 14 14 14 14 14 14 14
15 15 14 15 17 17 17 18 19 19 18 18 18 17 17 17 17 17 17 17 16 17 16 16 16 16 16 16 16 16 16 15 15 15 15 14 14 14 14 14 14 14 14 14
15 14 14 14 16 16 18 18 18 18 17 17 17 16 17 17 16 16 17 17 17 17 17 16 16 16 16 16 15 15 15 15 15 15 14 14 14 14 14 14 14 14 14 13
14 14 14 14 16 16 16 18 18 18 16 17 16 16 16 16 14 15 16 17 17 17 16 16 16 16 16 15 15 15 15 15 15 14 14 14 14 14 14 14 14 14 13 13
14 14 14 14 15 15 16 17 18 17 16 16 16 16 15 15 16 16 16 16 16 16 16 16 16 15 15 15 15 15 15 15 15 14 14 14 14 14 14 14 13 13 13 13
14 14 14 14 14 15 15 16 15 14 15 16 16 16 16 16 16 16 16 16 16 16 15 15 15 15 15 15 15 15 15 15 14 14 14 14 14 14 14 13 13 13 13 13
13 13 12 13 13 13 14 14 15 15 15 15 15 15 16 16 16 15 15 15 15 15 15 15 15 15 14 14 14 14 14 14 14 14 14 14 13 13 13 13 13 13 13 13
13 12 12 12 13 13 14 14 15 15 15 15 15 15 15 15 15 15 15 15 15 15 15 14 14 14 14 14 14 14 14 14 14 13 14 13 13 13 13 13 13 13 13 13
12 12 12 12 12 13 13 14 14 15 15 15 15 15 15 15 15 15 15 14 14 14 14 14 14 14 14 13 13 13 13 13 13 13 13 13 13 13 13 13 13 13 13 13
11 11 11 11 12 12 12 14 14 14 14 14 14 14 14 14 14 14 14 14 14 14 13 13 13 13 13 13 13 13 13 13 13 13 13 13 13 13 12 12 12 12 13 12
Wind_Speed
3 3 7 10 9 8 6 6 7 8 5 2 6 8 8 7 7 8 8 9 9 9 7 8 9 10 9 8 8 7 6 5 4 3 3 3 2 2 2 2 4 5 5 5
1 8 13 9 8 7 8 8 8 7 4 2 5 7 7 7 8 10 11 11 11 9 7 7 8 8 9 9 8 7 7 6 5 4 3 3 2 2 2 2 2 4 5 5
10 9 8 8 9 9 10 9 8 7 4 2 0 4 4 4 2 5 8 9 10 13 12 10 8 7 8 8 8 8 7 6 5 3 3 3 2 2 2 1 1 2 4 4
8 10 8 8 10 9 9 10 8 6 2 3 2 4 7 4 2 3 5 7 10 10 10 9 9 8 8 7 6 6 6 5 4 5 5 5 4 3 2 2 1 1 2 3
8 6 8 10 11 10 10 9 6 5 4 2 1 3 6 2 3 5 6 8 11 11 11 10 9 9 8 7 6 5 5 4 4 5 6 5 4 3 2 2 2 1 1 2
10 7 7 9 9 9 7 2 2 2 3 2 6 4 5 5 8 8 7 8 10 11 11 9 8 8 7 6 6 6 6 5 4 5 5 6 6 5 4 2 2 2 1 1
8 9 7 5 5 5 2 4 2 3 2 6 5 4 8 8 9 11 11 10 9 11 11 10 8 8 8 8 7 6 7 5 5 5 5 5 6 6 5 4 3 3 2 1
6 8 7 5 7 7 5 9 8 6 5 5 2 5 7 7 7 8 11 11 10 10 10 10 10 9 8 8 8 7 7 6 5 5 4 3 4 4 3 4 3 3 2 2
7 8 6 5 5 8 5 5 9 7 3 1 4 3 5 2 3 5 9 10 10 10 10 9 9 8 8 8 7 8 8 6 5 5 4 3 3 4 4 3 3 2 2 2
7 6 6 5 2 3 8 7 5 5 4 4 4 4 5 5 6 6 8 9 9 9 9 8 8 8 7 7 6 6 7 6 5 6 5 4 4 4 4 3 3 3 2 2
5 5 5 1 3 4 1 2 4 5 6 6 4 6 5 10 9 9 9 9 10 9 9 8 6 6 7 6 6 6 6 5 4 5 5 5 4 4 4 3 3 3 2 2
4 5 4 6 4 4 4 5 6 6 4 5 4 6 4 7 7 9 9 8 8 8 8 8 7 6 6 5 5 5 5 5 5 5 5 5 4 4 4 3 3 3 3 2
3 5 2 4 5 3 1 2 4 6 5 5 5 5 1 4 4 6 8 8 8 8 8 7 7 6 6 6 6 5 5 5 5 5 6 5 4 4 4 3 3 3 4 3
3 4 6 8 6 3 1 2 2 5 4 4 6 6 3 5 6 5 7 8 8 8 8 7 6 6 6 6 6 6 5 5 5 6 6 5 5 5 4 4 3 4 4 4
4 3 3 4 4 3 2 2 0 3 6 7 7 7 8 8 9 8 7 9 9 8 8 8 7 6 6 6 6 6 6 5 5 5 5 5 4 4 4 4 3 4 4 4
3 3 1 2 1 1 2 3 2 1 3 5 6 4 4 6 6 6 8 10 10 9 9 7 7 8 7 6 6 6 6 5 5 5 4 4 4 4 4 4 4 4 4 4
2 4 2 2 2 2 2 3 3 2 2 5 6 5 5 6 8 9 9 10 10 10 9 9 8 8 8 7 7 7 7 6 5 4 4 4 5 4 4 5 5 4 4 4
5 5 4 2 1 4 5 2 3 3 1 1 4 5 8 8 7 7 8 9 9 9 8 7 6 6 6 5 5 6 6 6 5 4 4 4 4 4 4 4 4 4 4 4
6 6 4 3 3 3 3 2 1 3 0 1 4 5 6 7 6 2 3 5 8 9 8 7 6 6 6 6 6 7 6 5 4 4 4 4 5 5 5 5 4 3 4 3
5 6 5 3 4 4 4 4 2 4 1 2 4 6 7 7 4 4 4 3 4 5 6 6 6 5 6 5 6 7 6 5 4 4 4 4 5 5 5 5 4 3 4 3
3 3 4 3 3 3 4 5 3 3 5 3 4 7 7 5 5 5 5 4 5 5 6 6 6 5 5 5 6 6 5 4 4 4 4 4 4 5 6 5 4 4 4 3
3 3 3 3 3 5 4 3 3 3 2 1 3 5 5 4 5 6 7 7 7 6 5 5 6 4 3 5 6 6 4 4 3 4 4 4 4 4 5 5 4 4 4 4
2 2 3 3 4 2 1 2 1 2 2 1 2 2 5 6 6 6 6 7 6 6 5 4 5 4 3 4 5 5 4 3 4 4 3 3 3 3 4 5 5 4 4 4
2 1 3 3 1 1 3 3 3 3 3 1 2 3 5 6 6 6 6 6 5 5 5 5 6 5 3 3 4 5 4 5 5 4 3 3 3 2 2 3 4 4 4 4
2 2 2 2 0 3 4 3 3 4 4 4 3 3 4 7 6 6 6 6 5 4 4 5 7 6 4 4 4 4 4 6 6 5 4 3 3 3 2 2 2 4 4 6
1 1 3 3 3 3 2 2 2 3 3 2 2 3 2 5 5 5 6 5 6 6 5 5 5 5 4 4 3 3 4 6 6 5 4 3 3 3 3 3 1 2 1 4
Wind_Direction
215 154 222 226 211 206 236 254 262 266 260 207 226 230 224 197 176 181 177 171 166 162 164 156 149 145 142 144 145 149 148 153 148 150 154 146 152 152 153 159 152 153 159 168
298 241 232 228 234 230 240 252 265 280 271 222 232 242 223 199 187 181 176 178 171 158 151 148 145 144 148 153 154 155 155 162 168 172 172 163 156 145 143 151 147 156 157 166
212 237 224 223 241 236 243 233 236 240 283 314 194 305 258 234 177 168 163 163 162 162 161 155 148 149 150 154 161 163 165 169 172 160 139 121 87 78 82 102 137 165 161 166
237 241 235 231 237 221 245 240 227 219 184 260 186 229 262 228 210 175 171 160 160 158 154 152 149 150 155 159 155 151 158 163 160 149 147 147 146 155 183 164 160 171 154 157
242 226 221 232 234 220 231 239 226 217 195 238 291 182 263 244 216 201 193 172 162 158 155 159 160 162 162 160 154 148 142 145 149 148 152 148 145 154 144 131 130 144 151 158
247 252 223 226 241 230 224 245 340 45 97 233 235 181 252 227 212 199 187 170 162 157 160 164 167 157 153 152 149 146 144 140 141 142 149 153 153 147 140 148 159 170 172 175
269 271 262 242 254 272 180 118 20 339 354 243 229 183 233 229 209 191 175 166 158 158 162 162 158 154 159 160 157 154 147 142 145 139 145 155 155 157 163 171 173 169 166 179
218 261 257 238 207 217 216 153 167 199 220 259 267 221 248 249 217 181 164 157 154 157 162 163 163 160 164 165 160 157 153 150 154 152 156 154 156 163 170 173 171 170 173 184
198 241 254 240 214 181 201 197 175 151 189 216 261 266 313 336 141 148 155 152 155 160 160 160 159 158 161 164 165 165 161 159 164 165 152 149 162 167 168 169 157 160 169 174
185 229 262 255 254 224 184 170 108 128 171 237 263 244 219 196 173 159 160 160 160 155 152 153 155 158 162 164 166 165 162 170 168 160 159 159 165 164 166 158 154 158 166 160
185 193 270 277 191 211 140 127 128 143 162 171 228 262 229 186 178 170 165 155 155 149 151 155 157 155 155 155 160 162 163 161 155 154 155 150 155 150 142 144 153 151 147 146
182 157 231 249 246 197 176 181 154 163 205 173 180 261 281 170 167 157 150 148 148 143 141 143 146 142 139 147 158 163 165 162 162 159 150 151 145 135 130 137 136 127 126 122
156 131 161 318 322 0 108 174 162 152 146 166 173 249 12 125 132 143 142 145 147 138 131 131 137 142 144 149 152 154 160 163 153 148 144 144 142 139 142 143 131 119 117 111
130 124 167 199 217 204 243 270 139 129 158 192 200 201 188 162 156 156 147 148 143 142 140 140 143 144 144 147 151 151 149 149 149 147 145 151 159 157 156 145 127 119 115 112
100 148 190 209 200 170 213 255 218 155 180 183 202 193 197 184 173 168 154 141 139 146 147 153 156 153 151 147 149 146 143 138 139 144 149 163 162 151 143 132 124 114 108 114
93 134 146 283 228 181 257 256 257 218 194 182 176 211 187 152 130 136 146 145 150 157 160 161 158 156 157 156 150 142 140 136 127 139 152 154 148 146 142 141 129 117 110 112
128 124 124 241 263 15 280 250 202 195 218 178 194 209 146 136 150 160 160 159 167 169 168 168 167 165 166 164 151 145 142 133 129 134 138 142 146 142 141 138 130 130 128 117
151 133 141 176 137 214 238 244 131 135 62 140 135 146 146 156 165 165 161 157 162 163 163 165 166 167 164 152 142 142 136 134 137 138 143 147 146 145 141 130 135 136 127 123
156 141 131 140 175 241 279 293 188 163 307 24 127 135 137 126 103 111 163 157 168 165 162 165 169 162 153 147 146 139 138 139 145 155 160 160 154 147 144 146 147 137 127 126
107 116 128 140 161 211 249 287 284 125 205 279 132 139 141 121 134 206 189 157 153 148 149 151 153 140 144 157 148 141 148 148 161 173 171 170 163 155 156 160 155 140 134 140
88 91 139 161 186 244 286 310 34 142 221 233 155 150 148 162 182 178 163 149 139 139 142 139 135 140 158 157 140 141 147 165 181 170 157 155 163 162 159 155 152 145 140 133
143 146 167 152 176 240 316 47 104 207 247 207 159 154 138 138 136 145 155 152 141 134 135 137 135 138 155 150 141 144 164 181 159 145 146 148 157 165 158 152 153 151 148 142
91 170 163 162 195 239 22 113 172 156 132 135 139 151 142 142 150 152 149 149 148 145 150 147 140 131 134 144 145 150 173 164 140 132 142 145 146 148 154 158 163 159 156 155
350 52 100 91 78 54 39 46 40 56 66 53 108 126 140 142 145 142 144 144 141 138 141 138 133 133 142 152 151 160 160 148 138 140 148 152 149 150 153 158 164 164 171 168
303 37 82 105 156 25 14 24 44 41 30 31 73 104 130 136 143 147 148 148 148 142 139 143 146 151 157 157 155 159 155 145 143 148 152 154 154 153 161 165 171 176 189 185
316 161 159 204 216 170 246 311 49 60 15 359 66 58 90 134 146 149 149 150 146 142 137 137 144 147 148 144 151 159 156 149 149 154 164 168 164 156 155 146 84 34 186 195
Height
1482 1489 1493 1490 1489 1492 1492 1495 1497 1490 1481 1484 1487 1487 1484 1483 1484 1487 1489 1491 1492 1493 1496 1498 1499 1500 1502 1504 1505 1506 1507 1508 1508 1509 1509 1510 1511 1512 1513 1514 1515 1516 1516 1517
1487 1489 1481 1481 1482 1486 1489 1494 1494 1487 1479 1483 1487 1486 1482 1481 1482 1483 1486 1487 1489 1491 1494 1496 1497 1498 1500 1501 1503 1504 1504 1505 1506 1506 1507 1508 1509 1510 1511 1512 1513 1514 1515 1515
1486 1480 1475 1478 1481 1485 1487 1491 1490 1489 1482 1481 1486 1492 1486 1481 1481 1482 1483 1484 1486 1488 1490 1493 1495 1497 1498 1499 1501 1501 1502 1503 1504 1505 1506 1507 1508 1509 1510 1510 1511 1512 1513 1513
1479 1473 1473 1476 1478 1479 1488 1477 1479 1482 1491 1498 1493 1510 1492 1484 1483 1483 1483 1484 1485 1488 1490 1492 1493 1495 1496 1498 1499 1500 1501 1502 1502 1503 1504 1505 1506 1507 1508 1509 1510 1511 1511 1512
1475 1469 1471 1474 1472 1471 1476 1470 1474 1478 1488 1497 1496 1505 1498 1486 1487 1483 1481 1481 1483 1486 1488 1491 1492 1494 1495 1497 1498 1499 1500 1501 1502 1502 1504 1504 1505 1507 1508 1508 1509 1510 1510 1511
1468 1463 1464 1465 1463 1463 1465 1471 1476 1484 1495 1509 1498 1502 1502 1490 1482 1479 1478 1480 1481 1484 1488 1490 1492 1493 1495 1496 1497 1498 1499 1499 1500 1502 1503 1504 1505 1506 1507 1507 1508 1509 1509 1510
1470 1463 1459 1459 1464 1464 1468 1487 1507 1509 1517 1512 1494 1496 1495 1476 1472 1472 1474 1477 1480 1482 1485 1488 1490 1492 1494 1496 1496 1497 1498 1498 1499 1500 1502 1503 1504 1505 1506 1507 1507 1508 1508 1508
1480 1477 1460 1456 1461 1468 1470 1482 1506 1516 1517 1509 1493 1495 1483 1468 1466 1468 1470 1474 1478 1481 1483 1487 1489 1491 1493 1494 1495 1496 1496 1497 1498 1500 1501 1502 1503 1504 1505 1506 1507 1507 1507 1508
1475 1473 1454 1452 1452 1458 1468 1476 1478 1496 1500 1507 1501 1488 1478 1467 1467 1469 1471 1474 1477 1480 1482 1486 1488 1490 1492 1493 1494 1494 1495 1496 1497 1498 1500 1501 1502 1504 1505 1505 1506 1507 1507 1508
1461 1469 1457 1450 1450 1453 1457 1465 1482 1495 1508 1513 1501 1493 1488 1475 1472 1471 1472 1473 1476 1479 1481 1484 1487 1489 1491 1492 1493 1494 1495 1495 1495 1496 1498 1500 1501 1502 1504 1504 1505 1506 1507 1507
1455 1467 1462 1456 1458 1461 1462 1468 1476 1489 1494 1507 1510 1498 1470 1470 1469 1469 1470 1471 1474 1477 1480 1483 1486 1488 1490 1491 1492 1493 1494 1494 1495 1497 1498 1499 1500 1501 1502 1503 1505 1506 1507 1507
1453 1464 1470 1461 1452 1450 1455 1463 1474 1489 1493 1494 1501 1495 1464 1465 1466 1467 1470 1472 1474 1476 1478 1482 1484 1487 1489 1490 1492 1493 1494 1494 1495 1496 1498 1499 1500 1501 1502 1503 1504 1505 1506 1507
1451 1465 1476 1473 1467 1457 1458 1459 1464 1473 1485 1493 1498 1489 1466 1466 1468 1469 1470 1472 1474 1476 1479 1482 1484 1486 1488 1489 1491 1492 1494 1494 1495 1496 1497 1498 1499 1500 1501 1502 1504 1505 1506 1507
1447 1462 1471 1476 1471 1463 1462 1459 1460 1470 1485 1488 1483 1477 1471 1469 1469 1470 1470 1471 1473 1476 1479 1481 1483 1485 1487 1489 1490 1492 1493 1494 1495 1495 1496 1498 1499 1500 1501 1502 1504 1504 1505 1506
1447 1460 1459 1458 1454 1455 1457 1458 1457 1463 1468 1476 1473 1470 1467 1465 1466 1468 1470 1471 1474 1477 1479 1481 1482 1484 1486 1488 1489 1491 1492 1493 1494 1495 1496 1498 1499 1500 1501 1502 1504 1504 1505 1506
1449 1458 1458 1458 1452 1453 1456 1454 1455 1457 1459 1463 1464 1466 1460 1462 1465 1467 1470 1471 1474 1476 1478 1480 1482 1483 1485 1486 1488 1490 1491 1493 1494 1495 1496 1498 1499 1500 1501 1502 1503 1505 1505 1506
1453 1458 1464 1467 1457 1456 1463 1456 1454 1456 1456 1458 1464 1463 1460 1463 1465 1466 1468 1470 1472 1474 1476 1478 1480 1481 1484 1486 1487 1489 1490 1492 1494 1495 1496 1498 1499 1500 1501 1502 1503 1504 1505 1506
1452 1457 1466 1468 1465 1474 1463 1450 1450 1453 1455 1454 1455 1456 1457 1459 1461 1464 1466 1467 1470 1473 1475 1477 1479 1481 1483 1485 1487 1489 1490 1492 1494 1495 1496 1497 1498 1500 1501 1502 1503 1504 1505 1506
1445 1454 1464 1471 1472 1467 1457 1451 1451 1455 1458 1455 1454 1455 1457 1459 1462 1466 1467 1467 1468 1470 1473 1476 1478 1480 1482 1484 1487 1488 1490 1491 1493 1495 1496 1497 1498 1499 1501 1502 1503 1504 1504 1505
1444 1448 1461 1467 1470 1471 1461 1449 1447 1452 1461 1455 1453 1455 1456 1458 1465 1466 1465 1466 1468 1470 1473 1475 1477 1479 1481 1483 1485 1488 1489 1491 1492 1494 1495 1497 1498 1499 1500 1501 1503 1503 1504 1505
1452 1455 1460 1465 1468 1463 1454 1448 1446 1462 1462 1454 1452 1452 1453 1454 1457 1460 1463 1465 1467 1470 1472 1474 1476 1478 1480 1482 1484 1486 1488 1490 1492 1493 1495 1496 1497 1498 1499 1500 1501 1502 1503 1504
1454 1458 1461 1463 1469 1467 1451 1449 1454 1457 1453 1452 1451 1450 1451 1453 1455 1458 1461 1464 1466 1468 1471 1473 1475 1477 1479 1481 1483 1484 1487 1489 1491 1492 1493 1494 1495 1496 1498 1499 1500 1501 1502 1503
1453 1455 1457 1460 1463 1455 1451 1451 1452 1452 1452 1452 1451 1451 1451 1452 1455 1457 1460 1463 1465 1467 1470 1471 1473 1476 1478 1480 1482 1483 1485 1487 1489 1490 1492 1493 1494 1495 1496 1497 1498 1499 1501 1501
1452 1451 1454 1457 1456 1454 1453 1451 1451 1451 1451 1451 1452 1452 1452 1452 1454 1457 1459 1462 1464 1467 1469 1470 1473 1474 1476 1479 1481 1482 1484 1486 1487 1489 1490 1492 1493 1494 1495 1496 1497 1498 1499 1500
1454 1452 1455 1457 1456 1455 1454 1452 1452 1451 1451 1451 1451 1451 1451 1451 1454 1456 1458 1460 1463 1466 1468 1470 1472 1473 1475 1477 1479 1481 1482 1484 1486 1487 1489 1490 1492 1492 1493 1494 1495 1497 1498 1499
1454 1454 1456 1457 1455 1455 1456 1454 1452 1451 1452 1452 1451 1451 1451 1451 1453 1455 1457 1459 1461 1464 1467 1469 1471 1473 1474 1476 1477 1479 1480 1482 1484 1485 1486 1488 1490 1491 1492 1492 1494 1495 1496 1498